Location: Houhaj�rvi
(61.2667°N, 23.0167°E)
Time: 16:39:00
(UTC+00:00)

Cosmos 1743 - Pass Details

Date: 13 December 2019
Orbit: 512 x 527 km, 82.6° (Epoch: 22 January)

Event Time Altitude Azimuth Distance (km) Brightness Sun altitude
Rises 16:36:44 0° 343° (NNW) 2,663 6.4 -21.9°
Reaches altitude 10° 16:38:56 10° 337° (NNW) 1,772 5.6 -22.2°
Maximum altitude 16:42:40 46° 264° (W) 718 3.8 -22.6°
Drops below altitude 10° 16:46:22 10° 191° (S) 1,767 5.6 -23.1°
Sets 16:48:33 0° 185° (S) 2,653 6.5 -23.3°
